DW3929 Weather Reports


Display with metric or nautical units.
time (UTC)temp
F
wind
direction
speed
MPH
gust
MPH
rain 1hr
in
rain 24hr
in
rain mn
in
humidity
%
barometer
mb
20260901235831 94 360 2.0 9.0 0.00 0.00 0.00 56 1011.9
20260901235330 94 360 3.0 11.0 0.00 0.00 0.00 55 1012.0
20260901234830 95 360 4.0 11.0 0.00 0.00 0.00 54 1012.0
20260901234330 95 360 2.0 12.0 0.00 0.00 0.00 54 1011.9
20260901233829 96 360 4.0 13.0 0.00 0.00 0.00 54 1011.9
20260901233330 96 360 6.0 12.0 0.00 0.00 0.00 54 1011.8
20260901232830 96 360 7.0 12.0 0.00 0.00 0.00 54 1011.7
20260901232329 97 360 4.0 11.0 0.00 0.00 0.00 55 1011.7
20260901231829 97 360 3.0 9.0 0.00 0.00 0.00 54 1011.6
20260901231329 97 360 5.0 8.0 0.00 0.00 0.00 54 1011.4
20260901230828 97 360 3.0 6.0 0.00 0.00 0.00 53 1011.4
20260901230415 96 360 3.0 6.0 0.00 0.00 0.00 54 1011.4
20260901225812 96 360 3.0 10.0 0.00 0.00 0.00 54 1011.5
20260901225313 96 360 4.0 10.0 0.00 0.00 0.00 54 1011.5
20260901224813 96 360 4.0 10.0 0.00 0.00 0.00 54 1011.5
20260901224313 96 360 7.0 10.0 0.00 0.00 0.00 55 1011.6
20260901223813 96 360 4.0 10.0 0.00 0.00 0.00 54 1011.6
20260901223313 96 360 6.0 10.0 0.00 0.00 0.00 54 1011.7
20260901222814 97 360 4.0 8.0 0.00 0.00 0.00 55 1011.6
20260901222314 98 360 3.0 11.0 0.00 0.00 0.00 54 1011.7
20260901221813 98 360 5.0 11.0 0.00 0.00 0.00 52 1011.6
20260901221332 98 360 5.0 10.0 0.00 0.00 0.00 54 1011.6
20260901220831 97 360 5.0 10.0 0.00 0.00 0.00 57 1011.6
20260901220349 95 360 6.0 9.0 0.00 0.00 0.00 57 1011.7
20260901215845 94 360 5.0 11.0 0.00 0.00 0.00 58 1011.8
20260901215323 94 360 6.0 13.0 0.00 0.00 0.00 57 1011.8
20260901214822 95 360 5.0 13.0 0.00 0.00 0.00 58 1011.8
20260901214321 95 360 8.0 13.0 0.00 0.00 0.00 56 1011.8
20260901213843 96 360 7.0 13.0 0.00 0.00 0.00 56 1011.8
20260901213322 96 360 6.0 14.0 0.00 0.00 0.00 55 1011.8
20260901212823 97 360 6.0 14.0 0.00 0.00 0.00 54 1011.7
20260901212323 97 360 7.0 13.0 0.00 0.00 0.00 53 1011.7
20260901211824 97 360 3.0 8.0 0.00 0.00 0.00 52 1011.7
20260901211323 97 360 3.0 8.0 0.00 0.00 0.00 54 1011.8
20260901210823 97 360 1.0 4.0 0.00 0.00 0.00 52 1011.8
20260901210323 97 360 1.0 4.0 0.00 0.00 0.00 56 1011.9
20260901205823 98 360 1.0 4.0 0.00 0.00 0.00 55 1012.0
20260901205323 98 360 2.0 5.0 0.00 0.00 0.00 50 1012.0
20260901204824 98 360 3.0 5.0 0.00 0.00 0.00 49 1012.0
20260901204323 98 360 1.0 3.0 0.00 0.00 0.00 58 1012.1
20260901203822 98 360 1.0 4.0 0.00 0.00 0.00 55 1012.1
20260901203322 99 360 2.0 4.0 0.00 0.00 0.00 51 1012.2
20260901202822 99 360 0.0 5.0 0.00 0.00 0.00 51 1012.3
20260901202321 100 360 2.0 5.0 0.00 0.00 0.00 48 1012.3
20260901201819 101 360 2.0 6.0 0.00 0.00 0.00 48 1012.4
20260901201317 102 360 3.0 6.0 0.00 0.00 0.00 46 1012.5
20260901200816 102 360 2.0 6.0 0.00 0.00 0.00 49 1012.5
20260901200315 102 360 2.0 9.0 0.00 0.00 0.00 50 1012.7
20260901195837 102 360 4.0 13.0 0.00 0.00 0.00 46 1012.7
20260901195314 102 360 3.0 10.0 0.00 0.00 0.00 46 1012.8
20260901194813 102 360 4.0 10.0 0.00 0.00 0.00 47 1012.8
20260901194327 102 360 3.0 8.0 0.00 0.00 0.00 49 1013.0
20260901193824 101 360 2.0 11.0 0.00 0.00 0.00 47 1012.9
20260901193344 101 360 6.0 11.0 0.00 0.00 0.00 50 1013.0
20260901192822 101 360 4.0 10.0 0.00 0.00 0.00 48 1013.1
20260901192341 101 360 3.0 9.0 0.00 0.00 0.00 49 1013.1
20260901191818 101 360 3.0 10.0 0.00 0.00 0.00 48 1013.2
20260901191317 100 360 3.0 10.0 0.00 0.00 0.00 53 1013.2
20260901190815 100 360 5.0 10.0 0.00 0.00 0.00 52 1013.3
20260901190313 99 360 2.0 5.0 0.00 0.00 0.00 50 1013.4
20260901185832 99 360 3.0 5.0 0.00 0.00 0.00 53 1013.4
20260901185332 98 360 2.0 4.0 0.00 0.00 0.00 55 1013.5
20260901184831 98 360 1.0 5.0 0.00 0.00 0.00 55 1013.7
20260901184312 99 360 2.0 5.0 0.00 0.00 0.00 54 1013.7
20260901183832 98 360 1.0 4.0 0.00 0.00 0.00 55 1013.8
20260901183330 98 360 2.0 4.0 0.00 0.00 0.00 52 1013.9
20260901182828 98 360 0.0 2.0 0.00 0.00 0.00 53 1014.0
20260901182328 98 360 1.0 6.0 0.00 0.00 0.00 54 1014.2
20260901181827 99 360 4.0 6.0 0.00 0.00 0.00 54 1014.3
20260901181325 99 360 2.0 9.0 0.00 0.00 0.00 54 1014.3
20260901180823 98 360 4.0 9.0 0.00 0.00 0.00 54 1014.4
20260901180322 98 360 2.0 8.0 0.00 0.00 0.00 56 1014.5
20260901175820 98 360 4.0 8.0 0.00 0.00 0.00 54 1014.6
20260901175319 97 360 1.0 8.0 0.00 0.00 0.00 57 1014.7
20260901174818 97 360 3.0 6.0 0.00 0.00 0.00 56 1014.8
20260901174316 97 360 3.0 5.0 0.00 0.00 0.00 58 1014.9
20260901173813 97 360 3.0 9.0 0.00 0.00 0.00 58 1015.0
20260901173330 96 360 2.0 9.0 0.00 0.00 0.00 59 1015.1
20260901172829 96 360 2.0 5.0 0.00 0.00 0.00 59 1015.1
20260901172321 95 360 2.0 9.0 0.00 0.00 0.00 62 1015.2
20260901171842 94 360 4.0 9.0 0.00 0.00 0.00 63 1015.3
20260901171320 94 360 2.0 8.0 0.00 0.00 0.00 62 1015.4
20260901170821 94 360 2.0 5.0 0.00 0.00 0.00 64 1015.5
20260901170321 94 360 2.0 4.0 0.00 0.00 0.00 66 1015.5
20260901165819 93 360 2.0 4.0 0.00 0.00 0.00 63 1015.7
20260901165321 93 360 2.0 3.0 0.00 0.00 0.00 64 1015.7
20260901164819 93 360 0.0 5.0 0.00 0.00 0.00 64 1015.7
20260901164319 93 360 3.0 5.0 0.00 0.00 0.00 64 1015.7
20260901163819 94 360 3.0 6.0 0.00 0.00 0.00 62 1015.7
20260901163318 94 360 2.0 6.0 0.00 0.00 0.00 61 1015.7
20260901162819 94 360 2.0 5.0 0.00 0.00 0.00 66 1015.7
20260901162317 94 360 2.0 6.0 0.00 0.00 0.00 66 1015.8
20260901161836 93 360 2.0 6.0 0.00 0.00 0.00 67 1015.9
20260901161315 92 360 3.0 6.0 0.00 0.00 0.00 65 1015.9
20260901160813 92 360 2.0 4.0 0.00 0.00 0.00 66 1015.9
20260901160331 91 360 1.0 4.0 0.00 0.00 0.00 66 1015.9
20260901155829 91 360 1.0 4.0 0.00 0.00 0.00 66 1015.9
20260901155329 91 360 1.0 4.0 0.00 0.00 0.00 67 1015.9
20260901154827 91 360 2.0 4.0 0.00 0.00 0.00 69 1015.9
20260901154326 91 360 3.0 6.0 0.00 0.00 0.00 69 1015.9
20260901153826 91 360 2.0 5.0 0.00 0.00 0.00 70 1015.9
20260901153332 91 360 1.0 3.0 0.00 0.00 0.00 73 1015.9
20260901152830 90 360 2.0 4.0 0.00 0.00 0.00 74 1015.9
20260901152330 90 360 2.0 4.0 0.00 0.00 0.00 74 1016.0
20260901151829 90 360 2.0 4.0 0.00 0.00 0.00 76 1016.0
20260901151328 89 360 2.0 5.0 0.00 0.00 0.00 76 1016.0
20260901150828 89 360 2.0 3.0 0.00 0.00 0.00 77 1016.0
20260901150326 89 360 2.0 3.0 0.00 0.00 0.00 78 1016.0
20260901145844 88 360 1.0 3.0 0.00 0.00 0.00 77 1016.1
20260901145321 88 360 1.0 5.0 0.00 0.00 0.00 82 1016.0
20260901144820 87 360 3.0 5.0 0.00 0.00 0.00 82 1016.0
20260901144319 86 360 1.0 4.0 0.00 0.00 0.00 84 1016.1
20260901143818 86 360 2.0 6.0 0.00 0.00 0.00 86 1016.0
20260901143352 85 360 2.0 6.0 0.00 0.00 0.00 86 1016.1
20260901142829 85 360 2.0 5.0 0.00 0.00 0.00 89 1016.1
20260901142327 84 360 2.0 5.0 0.00 0.00 0.00 88 1016.0
20260901141820 84 360 1.0 5.0 0.00 0.00 0.00 90 1016.1
20260901141339 83 360 1.0 4.0 0.00 0.00 0.00 92 1016.2
20260901140818 82 360 0.0 2.0 0.00 0.00 0.00 94 1016.2
20260901140318 81 360 0.0 2.0 0.00 0.00 0.00 95 1016.2
20260901135816 81 360 1.0 2.0 0.00 0.00 0.00 96 1016.2
20260901135315 80 360 1.0 2.0 0.00 0.00 0.00 97 1016.2
20260901134814 79 360 0.0 2.0 0.00 0.00 0.00 97 1016.2
20260901134314 79 360 1.0 2.0 0.00 0.00 0.00 98 1016.1
20260901133835 78 360 0.0 3.0 0.00 0.00 0.00 98 1016.1
20260901133332 78 360 1.0 3.0 0.00 0.00 0.00 98 1016.1
20260901132851 77 360 0.0 4.0 0.00 0.00 0.00 98 1016.0
20260901132327 76 360 1.0 4.0 0.00 0.00 0.00 98 1016.0
20260901131827 76 360 1.0 2.0 0.00 0.00 0.00 97 1015.9
20260901131324 75 360 0.0 2.0 0.00 0.00 0.00 97 1015.9
20260901130823 75 360 0.0 0.0 0.00 0.00 0.00 97 1015.9
20260901130322 75 360 0.0 0.0 0.00 0.00 0.00 97 1015.9
20260901125822 75 360 0.0 0.0 0.00 0.00 0.00 97 1015.9
20260901125324 74 360 0.0 0.0 0.00 0.00 0.00 97 1015.9
20260901124822 74 360 0.0 0.0 0.00 0.00 0.00 96 1015.8
20260901124341 74 360 0.0 0.0 0.00 0.00 0.00 96 1015.7
20260901123819 74 360 0.0 0.0 0.00 0.00 0.00 96 1015.7
20260901123318 74 360 0.0 0.0 0.00 0.00 0.00 96 1015.6
20260901122817 74 360 0.0 0.0 0.00 0.00 0.00 96 1015.5
20260901122316 74 360 0.0 0.0 0.00 0.00 0.00 96 1015.4
20260901121817 74 360 0.0 0.0 0.00 0.00 0.00 96 1015.4
20260901121338 74 360 0.0 0.0 0.00 0.00 0.00 96 1015.4
20260901120815 74 360 0.0 0.0 0.00 0.00 0.00 96 1015.4
20260901120315 74 360 0.0 0.0 0.00 0.00 0.00 95 1015.4
20260901115815 74 360 0.0 0.0 0.00 0.00 0.00 95 1015.4
20260901115315 74 360 0.0 0.0 0.00 0.00 0.00 95 1015.3
20260901114814 75 360 0.0 0.0 0.00 0.00 0.00 95 1015.1
20260901114335 75 360 0.0 0.0 0.00 0.00 0.00 95 1015.2
20260901113833 75 360 0.0 0.0 0.00 0.00 0.00 95 1015.2
20260901113327 75 360 0.0 0.0 0.00 0.00 0.00 96 1015.1
20260901112825 75 360 0.0 0.0 0.00 0.00 0.00 96 1015.1
20260901112325 75 360 0.0 0.0 0.00 0.00 0.00 96 1015.1
20260901111825 75 360 0.0 0.0 0.00 0.00 0.00 95 1015.1
20260901111324 75 360 0.0 0.0 0.00 0.00 0.00 95 1015.1
20260901110822 75 360 0.0 0.0 0.00 0.00 0.00 95 1015.1
20260901110321 75 360 0.0 0.0 0.00 0.00 0.00 95 1015.0
20260901105842 75 360 0.0 0.0 0.00 0.00 0.00 96 1015.0
20260901105321 75 360 0.0 0.0 0.00 0.00 0.00 96 1015.0
20260901104821 75 360 0.0 0.0 0.00 0.00 0.00 95 1015.1
20260901104321 75 360 0.0 0.0 0.00 0.00 0.00 95 1015.0
20260901103819 75 360 0.0 0.0 0.00 0.00 0.00 95 1015.0
20260901103320 75 360 0.0 0.0 0.00 0.00 0.00 95 1014.9
20260901102818 76 360 0.0 0.0 0.00 0.00 0.00 95 1014.8
20260901102319 76 360 0.0 0.0 0.00 0.00 0.00 95 1014.8
20260901101819 76 360 0.0 0.0 0.00 0.00 0.00 95 1014.8
20260901101320 76 360 0.0 0.0 0.00 0.00 0.00 95 1014.8
20260901100820 76 360 0.0 0.0 0.00 0.00 0.00 95 1014.9
20260901100318 76 360 0.0 0.0 0.00 0.00 0.00 95 1014.9
20260901095818 76 360 0.0 0.0 0.00 0.00 0.00 95 1015.0
20260901095317 76 360 0.0 0.0 0.00 0.00 0.00 95 1015.0
20260901094815 76 360 0.0 0.0 0.00 0.00 0.00 95 1015.0
20260901094314 76 360 0.0 0.0 0.00 0.00 0.00 94 1015.0
20260901093814 76 360 0.0 0.0 0.00 0.00 0.00 94 1015.0
20260901093335 76 360 0.0 0.0 0.00 0.00 0.00 94 1015.0
20260901092813 76 360 0.0 0.0 0.00 0.00 0.00 94 1015.1
20260901092311 76 360 0.0 0.0 0.00 0.00 0.00 94 1015.2
20260901091851 76 360 0.0 0.0 0.00 0.00 0.00 94 1015.2
20260901091327 76 360 0.0 0.0 0.00 0.00 0.00 94 1015.2
20260901090826 76 360 0.0 0.0 0.00 0.00 0.00 94 1015.2
20260901090325 76 360 0.0 0.0 0.00 0.00 0.00 93 1015.2
20260901085823 76 360 0.0 0.0 0.00 0.00 0.00 93 1015.2
20260901085323 77 360 0.0 0.0 0.00 0.00 0.00 93 1015.3
20260901084821 77 360 0.0 0.0 0.00 0.00 0.00 93 1015.3
20260901084340 77 360 0.0 0.0 0.00 0.00 0.00 93 1015.3
20260901083817 77 360 0.0 0.0 0.00 0.00 0.00 93 1015.4
20260901083315 77 360 0.0 0.0 0.00 0.00 0.00 93 1015.4
20260901082815 77 360 0.0 0.0 0.00 0.00 0.00 93 1015.3
20260901082353 77 360 0.0 0.0 0.00 0.00 0.00 93 1015.4
20260901081829 77 360 0.0 0.0 0.00 0.00 0.00 93 1015.3
20260901081329 78 360 0.0 0.0 0.00 0.00 0.00 92 1015.3
20260901080829 78 360 0.0 0.0 0.00 0.00 0.00 92 1015.2
20260901080330 78 360 0.0 0.0 0.00 0.00 0.00 92 1015.2
20260901075847 78 360 0.0 0.0 0.00 0.00 0.00 92 1015.1
20260901075344 78 360 0.0 0.0 0.00 0.00 0.00 91 1015.2
20260901074823 78 360 0.0 0.0 0.00 0.00 0.00 91 1015.1
20260901074321 78 360 0.0 0.0 0.00 0.00 0.00 91 1015.0
20260901073822 78 360 0.0 0.0 0.00 0.00 0.00 91 1015.0
20260901073321 79 360 0.0 0.0 0.00 0.00 0.00 90 1015.0
20260901072821 79 360 0.0 0.0 0.00 0.00 0.00 90 1015.1
20260901072321 79 360 0.0 0.0 0.00 0.00 0.00 90 1015.1
20260901071837 79 360 0.0 1.0 0.00 0.00 0.00 89 1015.2
20260901071314 79 360 0.0 1.0 0.00 0.00 0.00 89 1015.2
20260901070814 79 360 0.0 0.0 0.00 0.00 0.00 89 1015.2
20260901070314 79 360 0.0 2.0 0.00 0.00 0.00 89 1015.1
20260901065813 79 360 1.0 3.0 0.00 0.00 0.00 88 1015.1
20260901065312 80 360 1.0 4.0 0.00 0.00 0.00 88 1015.1
20260901064833 80 360 1.0 5.0 0.00 0.00 0.00 88 1015.1
20260901064330 80 360 2.0 5.0 0.00 0.00 0.00 88 1015.0
20260901063829 80 360 2.0 5.0 0.00 0.00 0.00 88 1015.1
20260901063328 80 360 1.0 3.0 0.00 0.00 0.00 87 1015.1
20260901062826 80 360 1.0 3.0 0.00 0.00 0.00 86 1015.0
20260901062324 80 360 1.0 3.0 0.00 0.00 0.00 86 1014.9
20260901061823 81 360 2.0 3.0 0.00 0.00 0.00 85 1014.9
20260901061322 81 360 2.0 3.0 0.00 0.00 0.00 85 1014.9
20260901060820 81 360 1.0 2.0 0.00 0.00 0.00 84 1014.8
20260901060318 81 360 1.0 3.0 0.00 0.00 0.00 84 1014.9
20260901055812 81 360 1.0 4.0 0.00 0.00 0.00 84 1014.9
20260901055331 82 360 2.0 3.0 0.00 0.00 0.00 84 1014.9
20260901054830 82 360 2.0 3.0 0.00 0.00 0.00 83 1014.8
20260901054328 82 360 0.0 2.0 0.00 0.00 0.00 83 1014.9
20260901053827 82 360 1.0 3.0 0.00 0.00 0.00 82 1014.9
20260901053326 83 360 1.0 3.0 0.00 0.00 0.00 82 1014.9
20260901052823 83 360 1.0 4.0 0.00 0.00 0.00 81 1014.9
20260901052321 83 360 2.0 4.0 0.00 0.00 0.00 81 1014.7
20260901051818 83 360 2.0 4.0 0.00 0.00 0.00 81 1014.7
20260901051315 84 360 2.0 6.0 0.00 0.00 0.00 80 1014.8
20260901050813 84 360 2.0 6.0 0.00 0.00 0.00 80 1014.6
20260901050351 84 360 3.0 6.0 0.00 0.00 0.00 80 1014.7
20260901045830 84 360 4.0 9.0 0.00 0.00 0.00 79 1014.7
20260901045348 84 360 5.0 10.0 0.00 0.00 0.00 79 1014.6
20260901044825 84 360 5.0 10.0 0.00 0.00 0.00 79 1014.6
20260901044346 85 360 5.0 10.0 0.00 0.00 0.00 78 1014.6
20260901043825 85 360 3.0 10.0 0.00 0.00 0.00 78 1014.5
20260901043325 85 360 3.0 13.0 0.00 0.00 0.00 77 1014.5
20260901042845 85 360 4.0 13.0 0.00 0.00 0.00 77 1014.6
20260901042323 85 360 3.0 11.0 0.00 0.00 0.00 77 1014.5
20260901041823 85 360 3.0 6.0 0.00 0.00 0.00 76 1014.5
20260901041324 86 360 2.0 8.0 0.00 0.00 0.00 75 1014.4
20260901040823 86 360 4.0 8.0 0.00 0.00 0.00 75 1014.4
20260901040323 86 360 4.0 8.0 0.00 0.00 0.00 74 1014.3
20260901035817 86 360 4.0 9.0 0.00 0.00 0.00 73 1014.3
20260901035336 86 360 4.0 10.0 0.00 0.00 0.00 73 1014.4
20260901034815 87 360 6.0 10.0 0.00 0.00 0.00 72 1014.4
20260901034315 87 360 5.0 12.0 0.00 0.00 0.00 71 1014.4
20260901033834 87 360 6.0 12.0 0.00 0.00 0.00 70 1014.3
20260901033331 87 360 4.0 10.0 0.00 0.00 0.00 70 1014.3
20260901032830 87 360 3.0 8.0 0.00 0.00 0.00 70 1014.3
20260901032326 87 360 3.0 8.0 0.00 0.00 0.00 70 1014.3
20260901031825 87 360 3.0 9.0 0.00 0.00 0.00 69 1014.2
20260901031326 87 360 3.0 9.0 0.00 0.00 0.00 69 1014.1
20260901030825 87 360 4.0 9.0 0.00 0.00 0.00 69 1014.0
20260901030325 88 360 3.0 8.0 0.00 0.00 0.00 69 1014.0
20260901025824 88 360 3.0 8.0 0.00 0.00 0.00 69 1013.9
20260901025343 88 360 2.0 6.0 0.00 0.00 0.00 69 1013.8
20260901024822 88 360 2.0 6.0 0.00 0.00 0.00 68 1013.7
20260901024322 89 360 3.0 6.0 0.00 0.00 0.00 67 1013.6
20260901023821 89 360 2.0 6.0 0.00 0.00 0.00 67 1013.5
20260901023320 89 360 3.0 9.0 0.00 0.00 0.00 67 1013.4
20260901022820 89 360 3.0 9.0 0.00 0.00 0.00 66 1013.3
20260901022321 89 360 3.0 9.0 0.00 0.00 0.00 66 1013.2
20260901021820 89 360 4.0 12.0 0.00 0.00 0.00 65 1013.2
20260901021319 90 360 4.0 12.0 0.00 0.00 0.00 65 1013.1
20260901020818 90 360 5.0 12.0 0.00 0.00 0.00 64 1012.9
20260901020339 90 360 5.0 12.0 0.00 0.00 0.00 64 1012.9
20260901015817 89 360 5.0 11.0 0.00 0.00 0.00 63 1012.9
20260901015317 89 360 5.0 11.0 0.00 0.00 0.00 63 1012.8
20260901014838 89 360 4.0 13.0 0.00 0.00 0.00 62 1012.7
20260901014338 88 360 3.0 13.0 0.00 0.00 0.00 61 1012.6
20260901013817 87 360 4.0 11.0 0.00 0.00 0.00 59 1012.6
20260901013338 88 360 3.0 6.0 0.00 0.00 0.00 59 1012.6
20260901012818 88 360 0.0 0.0 0.00 0.00 0.00 57 1012.5
20260901012321 89 360 0.0 1.0 0.00 0.00 0.00 58 1012.4
20260901011822 90 360 0.0 1.0 0.00 0.00 0.00 57 1012.3
20260901011322 90 360 0.0 5.0 0.00 0.00 0.00 57 1012.2
20260901010822 91 360 1.0 5.0 0.00 0.00 0.00 54 1012.2
20260901010342 91 360 1.0 9.0 0.00 0.00 0.00 56 1012.1
20260901005821 91 360 2.0 9.0 0.00 0.00 0.00 52 1012.0
20260901005320 92 360 1.0 8.0 0.00 0.00 0.00 54 1012.0
20260901004818 92 360 3.0 8.0 0.00 0.00 0.00 55 1012.0
20260901004319 93 360 2.0 5.0 0.00 0.00 0.00 53 1012.0
20260901003819 93 360 1.0 5.0 0.00 0.00 0.00 52 1012.1
20260901003320 94 360 1.0 8.0 0.00 0.00 0.00 52 1012.1
20260901002821 94 360 3.0 8.0 0.00 0.00 0.00 50 1012.0
20260901002320 94 360 2.0 8.0 0.00 0.00 0.00 53 1011.9
20260901001820 94 360 2.0 5.0 0.00 0.00 0.00 53 1011.9
20260901001318 94 360 1.0 5.0 0.00 0.00 0.00 50 1011.9
20260901000818 95 360 2.0 8.0 0.00 0.00 0.00 49 1011.8
20260901000321 95 360 3.0 8.0 0.00 0.00 0.00 49 1011.8